Weather History for KLHX - September, 2012

Change the Weather History Date:

Sunday, September 23, 2012

  Actual Average Record
Temperature  
Mean Temperature 66 °F 64 °F  
Max Temperature 85 °F 80 °F 95 °F (1947)
Min Temperature 46 °F 49 °F 35 °F (1946)
Degree Days  
Heating Degree Days 0 4  
Month to date heating degree days 19 35  
Since 1 July heating degree days 19 39  
Cooling Degree Days 1 3  
Month to date cooling degree days 132 126  
Year to date cooling degree days 1723 1204  
Growing Degree Days 15 (Base 50)    
Moisture  
Dew Point 35 °F    
Average Humidity 38    
Maximum Humidity 60    
Minimum Humidity 16    
Precipitation  
Precipitation 0.00 in 0.02 in 0.46 in (1988)
Month to date precipitation 0.49 0.66  
Year to date precipitation 4.60 9.74  
Sea Level Pressure  
Sea Level Pressure 30.03 in    
Wind  
Wind Speed 11 mph (ESE)    
Max Wind Speed 20 mph    
Max Gust Speed 24 mph    
Visibility 10 miles    
Events      
T = Trace of Precipitation, MM = Missing Value Source: NWS Daily Summary

Daily Weather History Graph

Daily Weather History Graph

Search for Another Location

Airport or City:

Trip Planner

Search our weather history database for the weather conditions in past years. The results will help you decide how hot, cold, wet, or windy it might be!

Date:

Astronomy

Sep. 23, 2012 Rise Set
Actual Time 6:43 AM MDT 6:48 PM MDT
Civil Twilight 6:16 AM MDT 7:14 PM MDT
Nautical Twilight 5:46 AM MDT 7:45 PM MDT
Astronomical Twilight 5:15 AM MDT 8:16 PM MDT
Moon 2:46 PM MDT (9/23) 12:03 AM MDT (9/23)
Length of Visible Light 12h 57m
Length of Day
12h 05m
First Quarter, 60% of the Moon is Illuminated
Sep 23
First Quarter
Sep 29
Full
Oct 8
Last Quarter
Oct 15
New
Oct 21
First Quarter

Hourly Weather History & Observations

Time (MDT) Temp. Dew Point Humidity Pressure Visibility Wind Dir Wind Speed Gust Speed Precip Events Conditions
12:53 AM 57.0 °F 34.0 °F 42% 30.09 in 10.0 mi East 17.3 mph - N/A   Clear
1:53 AM 54.0 °F 33.1 °F 45% 30.10 in 10.0 mi East 18.4 mph - N/A   Clear
2:53 AM 53.1 °F 33.1 °F 47% 30.11 in 10.0 mi East 16.1 mph - N/A   Clear
3:53 AM 51.1 °F 33.1 °F 50% 30.09 in 10.0 mi ESE 18.4 mph - N/A   Clear
4:53 AM 51.1 °F 33.1 °F 50% 30.08 in 10.0 mi ESE 17.3 mph - N/A   Clear
5:53 AM 48.9 °F 33.1 °F 54% 30.10 in 10.0 mi ESE 10.4 mph - N/A   Clear
6:53 AM 46.9 °F 33.1 °F 59% 30.14 in 10.0 mi Calm Calm - N/A   Clear
7:53 AM 50.0 °F 33.1 °F 52% 30.14 in 10.0 mi Calm Calm - N/A   Clear
8:53 AM 55.0 °F 34.0 °F 45% 30.13 in 10.0 mi West 6.9 mph - N/A   Clear
9:53 AM 59.0 °F 35.1 °F 41% 30.13 in 10.0 mi West 12.7 mph - N/A   Clear
10:53 AM 64.9 °F 36.0 °F 34% 30.10 in 10.0 mi WNW 8.1 mph - N/A   Clear
11:53 AM 70.0 °F 36.0 °F 29% 30.06 in 10.0 mi SW 5.8 mph - N/A   Clear
12:53 PM 75.0 °F 37.0 °F 25% 30.02 in 10.0 mi SSE 3.5 mph - N/A   Clear
1:53 PM 78.1 °F 37.0 °F 23% 29.99 in 10.0 mi East 4.6 mph - N/A   Clear
2:53 PM 82.0 °F 35.1 °F 18% 29.96 in 10.0 mi ESE 6.9 mph - N/A   Clear
3:53 PM 84.0 °F 34.0 °F 17% 29.94 in 10.0 mi ESE 11.5 mph - N/A   Clear
4:53 PM 84.9 °F 33.1 °F 16% 29.92 in 10.0 mi ESE 13.8 mph - N/A   Clear
5:53 PM 82.9 °F 33.1 °F 17% 29.94 in 10.0 mi East 11.5 mph - N/A   Clear
6:53 PM 77.0 °F 37.9 °F 24% 29.95 in 10.0 mi ENE 13.8 mph - N/A   Clear
7:53 PM 73.0 °F 37.9 °F 28% 29.97 in 10.0 mi East 15.0 mph - N/A   Clear
8:53 PM 71.1 °F 37.9 °F 30% 29.99 in 10.0 mi ESE 13.8 mph - N/A   Clear
9:53 PM 70.0 °F 37.9 °F 31% 29.98 in 10.0 mi ESE 15.0 mph - N/A   Clear
10:53 PM 68.0 °F 37.9 °F 33% 29.96 in 10.0 mi ESE 11.5 mph - N/A   Clear
11:53 PM 63.0 °F 37.9 °F 40% 29.94 in 10.0 mi East 11.5 mph - N/A   Clear